FW6672 Weather Reports


time (UTC)temp
F
wind
direction
speed
knots
gust
knots
rain 1hr
in
rain 24hr
in
rain mn
in
humidity
%
barometer
mb
20260505071559 44 250 0.0 0.0 0.00 0.00 0.00 97 1016.8
20260505071058 44 255 0.0 0.0 0.00 0.00 0.00 97 1016.7
20260505070555 44 260 0.0 0.0 0.00 0.00 0.00 97 1016.9
20260505070050 44 260 0.0 0.0 0.00 0.00 0.00 97 1016.8
20260505065546 44 254 0.0 0.0 0.00 0.00 0.00 96 1017.1
20260505065044 43 259 0.0 0.0 0.00 0.00 0.00 96 1016.8
20260505064540 44 258 0.0 0.0 0.00 0.00 0.00 96 1016.8
20260505064039 44 245 0.0 0.0 0.00 0.00 0.00 96 1016.7
20260505063536 43 235 0.0 0.0 0.00 0.00 0.00 96 1016.9
20260505063031 44 263 0.9 0.9 0.00 0.00 0.00 96 1017.0
20260505062528 44 283 0.9 0.9 0.00 0.00 0.00 96 1016.9
20260505062026 45 210 0.0 0.0 0.00 0.00 0.00 96 1016.9
20260505061523 45 295 0.0 0.0 0.00 0.00 0.00 96 1016.8
20260505061021 45 271 0.0 0.0 0.00 0.00 0.00 96 1016.5
20260505060518 45 263 0.0 0.0 0.05 0.00 0.00 96 1017.0
20260505060015 45 275 0.0 0.0 0.05 0.10 0.10 96 1017.0
20260505055510 45 267 0.0 0.0 0.00 0.09 0.09 96 1016.9
20260505055007 45 265 0.0 0.0 0.00 0.09 0.09 95 1017.3
20260505054504 45 272 0.0 0.0 0.07 0.09 0.09 96 1016.8
20260505054002 45 290 0.0 0.0 0.07 0.09 0.09 95 1017.0
20260505053459 46 276 0.9 0.9 0.05 0.08 0.08 95 1017.1
20260505052955 46 276 0.9 0.9 0.05 0.08 0.08 95 1017.3
20260505052453 46 267 0.9 0.9 0.05 0.08 0.08 95 1017.3
20260505051950 46 278 0.9 0.9 0.00 0.07 0.07 95 1017.4
20260505051447 46 267 0.9 0.9 0.00 0.07 0.07 95 1017.5
20260505050945 46 297 1.7 1.7 0.00 0.07 0.07 94 1017.3
20260505050443 46 269 0.9 0.9 0.07 0.07 0.07 94 1017.1
20260505041411 48 300 0.9 1.7 0.07 0.01 0.01 81 1017.3
20260505040908 49 279 0.9 0.9 0.00 0.00 0.00 75 1017.3
20260505040405 50 260 0.9 0.9 0.00 0.00 0.00 70 1017.1
20260505035902 50 259 0.9 1.7 0.00 0.00 0.00 67 1017.0
20260505035357 50 271 0.0 0.0 0.00 0.00 0.00 67 1016.9
20260505034855 50 271 0.9 0.9 0.00 0.00 0.00 66 1016.4
20260505034352 50 300 1.7 1.7 0.00 0.00 0.00 66 1016.5
20260505033849 50 272 0.9 0.9 0.00 0.00 0.00 66 1016.4
20260505033345 50 276 0.9 0.9 0.00 0.00 0.00 65 1016.4
20260505032844 50 281 0.9 0.9 0.00 0.00 0.00 65 1016.3
20260505032340 50 298 1.7 1.7 0.00 0.00 0.00 65 1016.2
20260505031837 50 285 0.9 1.7 0.00 0.00 0.00 65 1016.3
20260505031333 50 323 2.6 2.6 0.00 0.00 0.00 64 1016.2
20260505030831 50 326 2.6 2.6 0.00 0.00 0.00 63 1016.2
20260505030327 50 292 0.9 1.7 0.00 0.00 0.00 64 1016.1
20260505025822 51 294 0.9 0.9 0.00 0.00 0.00 63 1016.3
20260505025320 51 326 2.6 2.6 0.00 0.00 0.00 62 1015.9
20260505024818 51 291 1.7 1.7 0.00 0.00 0.00 63 1015.8
20260505024316 51 299 1.7 1.7 0.00 0.00 0.00 63 1015.9
20260505023813 51 306 1.7 1.7 0.00 0.00 0.00 62 1015.8
20260505023309 50 326 2.6 2.6 0.00 0.00 0.00 63 1015.7
20260505022807 50 295 0.9 1.7 0.00 0.00 0.00 64 1015.8
20260505022304 50 273 0.9 0.9 0.00 0.00 0.00 64 1015.9
20260505021801 50 307 1.7 1.7 0.00 0.00 0.00 65 1015.7
20260505021258 50 326 4.3 6.1 0.00 0.00 0.00 64 1015.8
20260505020753 50 336 5.2 5.2 0.00 0.00 0.00 64 1015.9
20260505020248 50 329 3.5 4.3 0.00 0.00 0.00 64 1016.1
20260505015746 51 332 3.5 4.3 0.00 0.00 0.00 64 1015.8
20260505015243 51 344 2.6 4.3 0.00 0.00 0.00 62 1015.6
20260505014740 52 327 5.2 6.1 0.00 0.00 0.00 59 1015.6
20260505014238 53 336 7.0 7.8 0.00 0.00 0.00 59 1015.2
20260505013734 53 307 2.6 4.3 0.00 0.00 0.00 56 1015.5
20260505013231 54 319 1.7 1.7 0.00 0.00 0.00 55 1015.6
20260505012729 54 295 1.7 1.7 0.00 0.00 0.00 52 1015.6
20260505012226 55 320 3.5 4.3 0.00 0.00 0.00 50 1015.2
20260505011722 55 293 0.9 1.7 0.00 0.00 0.00 49 1015.6
20260505011220 55 327 4.3 4.3 0.00 0.00 0.00 49 1015.3
20260505010715 55 310 6.1 7.0 0.00 0.00 0.00 48 1015.1
20260505010212 56 317 7.8 9.6 0.00 0.00 0.00 47 1015.0
20260505005708 56 303 6.1 7.8 0.00 0.00 0.00 46 1014.9
20260505005205 56 316 7.8 8.7 0.00 0.00 0.00 46 1015.0
20260505004702 57 346 7.8 8.7 0.00 0.00 0.00 44 1014.9
20260505004159 57 343 9.6 12.2 0.00 0.00 0.00 43 1014.7
20260505003656 58 337 9.6 12.2 0.00 0.00 0.00 41 1014.7
20260505003153 58 339 2.6 2.6 0.00 0.00 0.00 41 1014.9
20260505002649 58 353 7.0 7.8 0.00 0.00 0.00 40 1014.9
20260505002148 58 329 4.3 6.1 0.00 0.00 0.00 40 1014.6
20260505001644 59 13 6.1 7.0 0.00 0.00 0.00 40 1014.5
20260505001142 59 345 6.1 9.6 0.00 0.00 0.00 39 1014.2
20260505000638 59 335 4.3 7.0 0.00 0.00 0.00 39 1014.4
20260505000137 59 326 7.8 8.7 0.00 0.00 0.00 38 1014.7
20260504235633 59 321 5.2 6.1 0.00 0.00 0.00 38 1014.6
20260504235129 59 329 6.1 7.0 0.00 0.00 0.00 37 1014.7
20260504234626 59 351 2.6 2.6 0.00 0.00 0.00 39 1014.6
20260504234124 59 323 6.1 7.8 0.00 0.00 0.00 38 1014.5
20260504233619 60 326 6.1 7.0 0.00 0.00 0.00 38 1014.5
20260504233115 60 13 2.6 2.6 0.00 0.00 0.00 38 1014.6
20260504232614 60 313 4.3 5.2 0.00 0.00 0.00 38 1014.5
20260504232110 60 342 6.1 8.7 0.00 0.00 0.00 38 1014.5
20260504231607 60 336 9.6 13.0 0.00 0.00 0.00 37 1014.5
20260504231103 59 318 8.7 9.6 0.00 0.00 0.00 38 1014.0
20260504230558 60 323 9.6 13.9 0.00 0.00 0.00 38 1013.8
20260504230053 60 334 7.0 9.6 0.00 0.00 0.00 38 1013.8
20260504225549 60 357 10.4 13.9 0.00 0.00 0.00 38 1013.6
20260504225046 60 55 4.3 7.8 0.00 0.00 0.00 38 1013.8
20260504224543 60 341 10.4 12.2 0.00 0.00 0.00 37 1013.8
20260504224040 61 332 6.1 7.0 0.00 0.00 0.00 36 1013.6
20260504223537 62 339 10.4 11.3 0.00 0.00 0.00 34 1013.6
20260504223033 64 315 3.5 4.3 0.00 0.00 0.00 29 1013.3
20260504222530 64 307 6.1 7.0 0.00 0.00 0.00 28 1013.4
20260504222027 65 333 3.5 4.3 0.00 0.00 0.00 28 1013.2
20260504221524 64 273 6.1 8.7 0.00 0.00 0.00 28 1013.2
20260504221021 64 345 7.8 8.7 0.00 0.00 0.00 28 1013.2
20260504220518 64 321 7.8 7.8 0.00 0.00 0.00 28 1012.9
20260504220015 64 311 10.4 12.2 0.00 0.00 0.00 27 1013.0
20260504215511 64 282 7.8 8.7 0.00 0.00 0.00 29 1012.9
20260504215009 64 352 4.3 5.2 0.00 0.00 0.00 29 1013.0
20260504214504 64 347 6.1 9.6 0.00 0.00 0.00 28 1013.0
20260504214001 65 331 10.4 13.0 0.00 0.00 0.00 27 1013.2
20260504213456 65 356 4.3 6.1 0.00 0.00 0.00 26 1013.0
20260504212955 65 329 7.0 8.7 0.00 0.00 0.00 26 1013.4
20260504212450 66 352 4.3 6.1 0.00 0.00 0.00 27 1013.3
20260504211948 66 329 7.0 7.8 0.00 0.00 0.00 26 1013.0
20260504211444 66 310 0.9 0.9 0.00 0.00 0.00 27 1013.2
20260504210942 66 8 4.3 4.3 0.00 0.00 0.00 27 1013.6
20260504210438 66 265 0.0 0.0 0.00 0.00 0.00 24 1013.4
20260504205935 67 318 4.3 5.2 0.00 0.00 0.00 25 1013.4
20260504205433 67 309 6.1 6.1 0.00 0.00 0.00 26 1013.5
20260504204931 66 320 2.6 2.6 0.00 0.00 0.00 26 1013.4
20260504204429 67 23 2.6 4.3 0.00 0.00 0.00 27 1013.5
20260504203928 68 341 4.3 5.2 0.00 0.00 0.00 27 1013.5
20260504203425 69 323 6.1 7.0 0.00 0.00 0.00 25 1013.5
20260504202921 68 309 2.6 2.6 0.00 0.00 0.00 26 1013.5
20260504202418 67 220 0.9 1.7 0.00 0.00 0.00 26 1013.8
20260504201914 66 326 3.5 4.3 0.00 0.00 0.00 27 1013.8
20260504201412 68 144 1.7 4.3 0.00 0.00 0.00 28 1013.9
20260504200909 67 11 4.3 7.0 0.00 0.00 0.00 29 1013.8
20260504200406 67 359 8.7 13.0 0.00 0.00 0.00 27 1014.0
20260504195903 67 324 7.8 9.6 0.00 0.00 0.00 27 1013.9
20260504195358 67 351 7.0 8.7 0.00 0.00 0.00 29 1013.9
20260504194855 65 338 9.6 12.2 0.00 0.00 0.00 30 1013.9
20260504194351 65 340 8.7 9.6 0.00 0.00 0.00 30 1013.8
20260504193847 65 37 13.0 17.4 0.00 0.00 0.00 31 1014.1
20260504193344 65 338 6.1 7.0 0.00 0.00 0.00 30 1013.9
20260504192843 63 283 4.3 5.2 0.00 0.00 0.00 31 1013.8
20260504192340 64 317 5.2 7.0 0.00 0.00 0.00 28 1013.5
20260504191839 64 355 7.8 9.6 0.00 0.00 0.00 27 1013.9
20260504191337 64 319 8.7 9.6 0.00 0.00 0.00 26 1013.6
20260504190832 65 319 4.3 5.2 0.00 0.00 0.00 26 1013.6
20260504190328 65 343 3.5 4.3 0.00 0.00 0.00 26 1013.5
20260504185825 65 324 7.8 8.7 0.00 0.00 0.00 25 1013.6
20260504185322 66 344 7.0 7.0 0.00 0.00 0.00 25 1013.6
20260504184818 66 343 2.6 5.2 0.00 0.00 0.00 25 1013.6
20260504184314 66 333 4.3 5.2 0.00 0.00 0.00 25 1013.6
20260504183809 66 335 5.2 7.8 0.00 0.00 0.00 24 1013.8
20260504183307 68 336 4.3 5.2 0.00 0.00 0.00 24 1013.6
20260504182804 68 328 2.6 2.6 0.00 0.00 0.00 25 1013.9
20260504182304 68 322 2.6 2.6 0.00 0.00 0.00 24 1013.8
20260504181759 69 297 2.6 2.6 0.00 0.00 0.00 24 1013.9
20260504181256 71 202 0.9 1.7 0.00 0.00 0.00 24 1014.1
20260504180755 70 146 5.2 6.1 0.00 0.00 0.00 23 1013.9
20260504180254 70 186 2.6 4.3 0.00 0.00 0.00 21 1014.2
20260504175751 68 322 3.5 4.3 0.00 0.00 0.00 25 1014.0
20260504175247 70 339 1.7 1.7 0.00 0.00 0.00 24 1014.2
20260504174745 69 192 1.7 1.7 0.00 0.00 0.00 26 1014.1
20260504174243 68 239 1.7 2.6 0.00 0.00 0.00 23 1014.5
20260504173739 69 215 2.6 2.6 0.00 0.00 0.00 25 1014.4
20260504173236 68 197 2.6 2.6 0.00 0.00 0.00 25 1014.7
20260504172733 68 191 2.6 4.3 0.00 0.00 0.00 26 1015.0
20260504172230 67 315 7.0 9.6 0.00 0.00 0.00 25 1014.6
20260504171726 68 323 7.0 7.8 0.00 0.00 0.00 24 1014.6
20260504171223 68 313 2.6 4.3 0.00 0.00 0.00 26 1014.7
20260504170720 68 245 1.7 1.7 0.00 0.00 0.00 26 1015.0
20260504170217 68 249 3.5 4.3 0.00 0.00 0.00 26 1014.9
20260504160136 66 183 2.6 4.3 0.00 0.00 0.00 27 1015.2
20260504151103 62 252 3.5 4.3 0.00 0.00 0.00 29 1015.6
20260504150600 62 185 4.3 6.1 0.00 0.00 0.00 29 1015.5
20260504141026 61 237 4.3 7.0 0.00 0.00 0.00 30 1015.2
20260504140523 60 208 3.5 5.2 0.00 0.00 0.00 34 1015.1
20260504130447 46 195 1.7 1.7 0.00 0.00 0.00 54 1015.1
20260504110334 43 234 0.0 0.0 0.00 0.00 0.00 58 1015.3
20260504100252 49 234 0.0 0.0 0.00 0.00 0.00 44 1015.6
20260504081645 46 269 0.0 0.9 0.00 0.00 0.00 54 1016.4
20260504081141 46 257 0.0 0.0 0.00 0.00 0.00 55 1016.5
20260504080638 46 222 0.9 0.9 0.00 0.00 0.00 55 1016.5
20260504080134 46 322 4.3 5.2 0.00 0.00 0.00 58 1016.8